| time (UTC) | temp F | wind direction | speed MPH | gust MPH | rain 1hr in | rain 24hr in | rain mn in | humidity % | barometer mb |
| 20260506134600 | 61 | 120 | 5.0 | 11.0 | 0.00 | 0.00 | 0.00 | 82 | 1008.3 |
| 20260506133100 | 61 | 156 | 1.0 | 8.0 | 0.00 | 0.00 | 0.00 | 83 | 1008.3 |
| 20260506131602 | 60 | 138 | 2.0 | 8.0 | 0.00 | 0.00 | 0.00 | 83 | 1008.5 |
| 20260506130131 | 60 | 176 | 4.0 | 11.0 | 0.00 | 0.00 | 0.00 | 83 | 1008.5 |
| 20260506124601 | 60 | 141 | 5.0 | 11.0 | 0.00 | 0.00 | 0.00 | 83 | 1008.6 |
| 20260506123056 | 59 | 167 | 3.0 | 7.0 | 0.00 | 0.00 | 0.00 | 83 | 1008.4 |
| 20260506121553 | 59 | 131 | 2.0 | 11.0 | 0.00 | 0.00 | 0.00 | 84 | 1008.4 |
| 20260506120052 | 59 | 155 | 2.0 | 10.0 | 0.00 | 0.00 | 0.00 | 84 | 1008.7 |
| 20260506114551 | 58 | 152 | 2.0 | 13.0 | 0.00 | 0.00 | 0.00 | 84 | 1008.6 |
| 20260506113056 | 58 | 148 | 2.0 | 10.0 | 0.00 | 0.00 | 0.00 | 85 | 1008.9 |
| 20260506111549 | 58 | 100 | 0.0 | 11.0 | 0.00 | 0.00 | 0.00 | 85 | 1008.9 |
| 20260506110055 | 57 | 114 | 1.0 | 8.0 | 0.00 | 0.00 | 0.00 | 85 | 1009.0 |
| 20260506104553 | 57 | 137 | 1.0 | 9.0 | 0.00 | 0.00 | 0.00 | 85 | 1009.3 |
| 20260506103055 | 57 | 129 | 0.0 | 8.0 | 0.00 | 0.00 | 0.00 | 85 | 1009.1 |
| 20260506101555 | 57 | 129 | 1.0 | 8.0 | 0.00 | 0.00 | 0.00 | 85 | 1008.9 |
| 20260506100101 | 57 | 136 | 2.0 | 11.0 | 0.00 | 0.00 | 0.00 | 84 | 1008.8 |
| 20260506094542 | 57 | 169 | 0.0 | 8.0 | 0.00 | 0.00 | 0.00 | 83 | 1008.9 |
| 20260506093045 | 57 | 127 | 2.0 | 10.0 | 0.00 | 0.00 | 0.00 | 82 | 1008.9 |
| 20260506091540 | 57 | 129 | 1.0 | 8.0 | 0.00 | 0.00 | 0.00 | 81 | 1008.8 |
| 20260506090037 | 57 | 115 | 0.0 | 6.0 | 0.00 | 0.00 | 0.00 | 80 | 1008.9 |
| 20260506084554 | 57 | 132 | 0.0 | 5.0 | 0.00 | 0.00 | 0.00 | 79 | 1009.0 |
| 20260506083035 | 57 | 107 | 0.0 | 2.0 | 0.00 | 0.00 | 0.00 | 79 | 1009.0 |
| 20260506081540 | 58 | 184 | 0.0 | 5.0 | 0.00 | 0.00 | 0.00 | 78 | 1009.0 |
| 20260506073038 | 59 | 117 | 0.0 | 3.0 | 0.00 | 0.00 | 0.00 | 75 | 1009.0 |
| 20260506071525 | 59 | 148 | 1.0 | 6.0 | 0.00 | 0.00 | 0.00 | 74 | 1008.9 |
| 20260506061519 | 60 | 162 | 2.0 | 7.0 | 0.00 | 0.00 | 0.00 | 72 | 1008.6 |
| 20260506044528 | 61 | 117 | 0.0 | 7.0 | 0.00 | 0.00 | 0.00 | 71 | 1008.8 |
| 20260506043009 | 61 | 87 | 0.0 | 9.0 | 0.00 | 0.00 | 0.00 | 70 | 1008.9 |
| 20260506041505 | 62 | 132 | 1.0 | 8.0 | 0.00 | 0.00 | 0.00 | 70 | 1008.8 |
| 20260506040005 | 63 | 133 | 4.0 | 7.0 | 0.00 | 0.00 | 0.00 | 68 | 1008.7 |
| 20260506034503 | 63 | 138 | 2.0 | 11.0 | 0.00 | 0.00 | 0.00 | 68 | 1008.7 |
| 20260506033002 | 64 | 154 | 1.0 | 8.0 | 0.00 | 0.00 | 0.00 | 68 | 1008.7 |
| 20260506031502 | 64 | 169 | 3.0 | 10.0 | 0.00 | 0.00 | 0.00 | 66 | 1008.7 |
| 20260506030000 | 64 | 162 | 2.0 | 12.0 | 0.00 | 0.00 | 0.00 | 68 | 1008.7 |
| 20260506024600 | 64 | 144 | 1.0 | 10.0 | 0.00 | 0.00 | 0.00 | 70 | 1008.6 |
| 20260506023113 | 63 | 160 | 1.0 | 8.0 | 0.00 | 0.00 | 0.00 | 74 | 1008.6 |
| 20260506021559 | 63 | 107 | 0.0 | 4.0 | 0.00 | 0.00 | 0.00 | 75 | 1008.5 |
| 20260506020058 | 63 | 148 | 1.0 | 5.0 | 0.00 | 0.00 | 0.00 | 75 | 1008.7 |
| 20260506014559 | 63 | 112 | 0.0 | 0.0 | 0.00 | 0.00 | 0.00 | 77 | 1008.8 |
| 20260506013059 | 64 | 149 | 0.0 | 2.0 | 0.00 | 0.00 | 0.00 | 76 | 1008.9 |
| 20260506011620 | 64 | 165 | 0.0 | 7.0 | 0.00 | 0.00 | 0.00 | 75 | 1008.8 |
| 20260506004624 | 63 | 189 | 0.0 | 3.0 | 0.00 | 0.00 | 0.00 | 79 | 1008.9 |
| 20260506003109 | 65 | 47 | 0.0 | 0.0 | 0.00 | 0.00 | 0.00 | 71 | 1008.4 |
| 20260506001557 | 65 | 46 | 0.0 | 1.0 | 0.00 | 0.00 | 0.00 | 70 | 1008.2 |
| 20260506000053 | 67 | 49 | 0.0 | 2.0 | 0.00 | 0.00 | 0.00 | 67 | 1007.7 |
| 20260505234617 | 69 | 46 | 0.0 | 4.0 | 0.00 | 0.00 | 0.00 | 58 | 1007.4 |
| 20260505233051 | 72 | 188 | 0.0 | 13.0 | 0.00 | 0.00 | 0.00 | 52 | 1006.9 |
| 20260505231551 | 75 | 90 | 11.0 | 26.0 | 0.00 | 0.00 | 0.00 | 43 | 1006.1 |
| 20260505230050 | 75 | 81 | 4.0 | 22.0 | 0.00 | 0.00 | 0.00 | 43 | 1005.7 |
| 20260505224550 | 76 | 86 | 7.0 | 19.0 | 0.00 | 0.00 | 0.00 | 41 | 1005.6 |
| 20260505223050 | 77 | 115 | 11.0 | 22.0 | 0.00 | 0.00 | 0.00 | 40 | 1005.2 |
| 20260505221549 | 77 | 110 | 6.0 | 21.0 | 0.00 | 0.00 | 0.00 | 39 | 1004.9 |
| 20260505220100 | 78 | 153 | 9.0 | 21.0 | 0.00 | 0.00 | 0.00 | 38 | 1005.0 |
| 20260505214549 | 78 | 179 | 7.0 | 26.0 | 0.00 | 0.00 | 0.00 | 37 | 1004.5 |
| 20260505213047 | 78 | 178 | 9.0 | 27.0 | 0.00 | 0.00 | 0.00 | 37 | 1004.3 |
| 20260505211551 | 78 | 130 | 10.0 | 28.0 | 0.00 | 0.00 | 0.00 | 37 | 1004.2 |
| 20260505210046 | 79 | 116 | 11.0 | 26.0 | 0.00 | 0.00 | 0.00 | 36 | 1004.2 |
| 20260505204547 | 79 | 146 | 12.0 | 28.0 | 0.00 | 0.00 | 0.00 | 35 | 1004.2 |
| 20260505203043 | 80 | 181 | 10.0 | 30.0 | 0.00 | 0.00 | 0.00 | 34 | 1004.0 |
| 20260505201542 | 81 | 141 | 9.0 | 22.0 | 0.00 | 0.00 | 0.00 | 33 | 1004.1 |
| 20260505200038 | 80 | 119 | 11.0 | 25.0 | 0.00 | 0.00 | 0.00 | 34 | 1004.4 |
| 20260505194542 | 81 | 156 | 8.0 | 22.0 | 0.00 | 0.00 | 0.00 | 33 | 1004.5 |
| 20260505193042 | 80 | 103 | 9.0 | 29.0 | 0.00 | 0.00 | 0.00 | 33 | 1004.6 |
| 20260505191548 | 80 | 228 | 10.0 | 27.0 | 0.00 | 0.00 | 0.00 | 33 | 1004.8 |
| 20260505190030 | 80 | 184 | 11.0 | 24.0 | 0.00 | 0.00 | 0.00 | 33 | 1004.9 |
| 20260505184528 | 80 | 113 | 12.0 | 29.0 | 0.00 | 0.00 | 0.00 | 33 | 1005.3 |
| 20260505183028 | 79 | 166 | 11.0 | 31.0 | 0.00 | 0.00 | 0.00 | 34 | 1005.7 |
| 20260505181525 | 79 | 252 | 7.0 | 26.0 | 0.00 | 0.00 | 0.00 | 35 | 1006.0 |
| 20260505180032 | 80 | 173 | 15.0 | 36.0 | 0.00 | 0.00 | 0.00 | 33 | 1006.1 |
| 20260505174530 | 80 | 130 | 13.0 | 28.0 | 0.00 | 0.00 | 0.00 | 34 | 1006.3 |
| 20260505173015 | 80 | 208 | 6.0 | 26.0 | 0.00 | 0.00 | 0.00 | 36 | 1006.2 |
| 20260505171514 | 79 | 159 | 7.0 | 18.0 | 0.00 | 0.00 | 0.00 | 37 | 1006.5 |
| 20260505170016 | 78 | 285 | 6.0 | 19.0 | 0.00 | 0.00 | 0.00 | 39 | 1006.7 |
| 20260505164505 | 77 | 176 | 11.0 | 22.0 | 0.00 | 0.00 | 0.00 | 41 | 1006.9 |
| 20260505163101 | 77 | 172 | 7.0 | 19.0 | 0.00 | 0.00 | 0.00 | 42 | 1007.5 |
| 20260505161603 | 76 | 146 | 8.0 | 21.0 | 0.00 | 0.00 | 0.00 | 43 | 1007.9 |
| 20260505153055 | 73 | 147 | 6.0 | 21.0 | 0.00 | 0.00 | 0.00 | 47 | 1008.5 |
| 20260505151548 | 73 | 145 | 7.0 | 17.0 | 0.00 | 0.00 | 0.00 | 48 | 1008.7 |